sat.trackr.live / text

‹ back to catalog

STARLINK-3369

NORAD 51142 · 2022-005AQ

PAYLOAD ACTIVE UNKNOWN

§ Identity

Operator
Country
US
Launch date
2022-01-19
Launch site
AFETR
Launch vehicle
Mass (kg)
RCS (m²)

Purposes: comms

External: N2YO · Heavens-Above · Gunter

§ Orbital elements

Epoch: 2026-05-25T03:13:56.085888Z

Period
94.52 min
Inclination
53.2245°
Eccentricity
0.0005338
Mean motion
15.23491042 rev/d
Perigee alt
491.7 km
Apogee alt
499.0 km
Semi-major
6,873.5 km
B*
1.1264e-3
RAAN
291.9465°
Arg perigee
103.6283°
Mean anomaly
256.5311°
Rev number
24,061

§ Raw data

STARLINK-33691 51142U 22005AQ  26145.13467692  .00026992  00000+0  11264-2 0  99912 51142  53.2245 291.9465 0005338 103.6283 256.5311 15.23491042240611

JSON: /api/v1/satellites/51142 · /tle

For live sub-satellite position, see the globe view (requires WebGL).

§ Visibility from observer

Set your observer location to see the next 7 days of passes ≥ 10°. The values pass through the URL so the page stays shareable.

No JS? Fill the form by hand. The geolocation button needs JavaScript.